#timestamp,LO_Frequency,Hit,StdDev 
1691845215.5,286046985.5,N
1691845235.3,286046983.7,N
1691845255.2,286046985.2,N
1691845275.9,286046984.5,N
1691845295.7,286046982.3,N
1691845315.6,286046982.9,N
1691845335.4,286046983.3,N
1691845355.2,286046982.3,N
1691845375.1,286046980.5,N
1691845376.0,286046980.5,N
1691845395.8,286046981.4,N
1691845415.6,286046983.5,N
1691845435.5,286046983.3,N
1691845455.3,286046983.3,N
1691845475.1,286046983.9,N
1691845495.9,286046987.9,N
1691845515.7,286046983.8,N
1691845535.5,286046984.4,N
1691845555.4,286046984.4,N
1691845575.2,286046984.1,N
1691845595.0,286046983.7,Y
1691845595.9,286046983.7,P
1691845615.8,286046999.0,N
1691845635.6,286047032.8,P
1691845655.4,286047012.2,N
1691845675.3,286047003.4,N
1691845695.1,286046998.1,N
1691845696.0,286046998.1,N
1691845715.8,286046997.5,N
1691845735.7,286046995.0,N
1691845755.5,286046995.9,N
1691845775.3,286046996.3,N
1691845795.2,286046993.6,N
1691845815.9,286046994.4,N
1691845835.7,286046993.4,N
1691845855.6,286046993.9,N
1691845875.4,286046995.9,N
1691845895.2,286046996.0,N
1691845915.1,286046996.0,N
1691845916.0,286046996.0,N
1691845935.8,286046995.6,N
1691845955.6,286046995.9,N
1691845975.5,286046994.9,N
1691845995.3,286046997.5,N
1691846015.1,286046997.4,N
1691846035.9,286046995.2,N
1691846055.7,286046995.2,N
1691846075.5,286046995.5,N
1691846095.4,286046995.4,N
1691846115.2,286046997.6,N
1691846135.0,286046998.0,N
1691846135.9,286046998.0,N
1691846155.8,286046995.1,N
1691846175.6,286046995.5,N
1691846195.4,286046995.4,N
1691846215.3,286046994.9,N
1691846235.1,286046996.2,N
1691846236.0,286046996.2,Y
1691846255.8,286047001.0,P
1691846275.7,286047000.9,N
1691846295.5,286047000.6,N
1691846315.3,286046999.8,N
1691846335.2,286047002.6,N
1691846355.0,286046999.7,N
1691846355.9,286046999.7,N
1691846375.7,286047002.3,N
1691846395.6,286047002.4,N
1691846415.4,286047001.8,N
1691846435.2,286047002.3,N
1691846455.1,286047001.5,N
1691846456.0,286047001.5,N
1691846475.8,286047002.6,N
1691846495.6,286046999.7,N
1691846515.5,286047002.2,N
1691846535.3,286047001.4,N
1691846555.1,286047002.4,N
1691846575.9,286047004.3,N
1691846595.7,286047001.5,N
1691846615.5,286047001.3,N
1691846635.4,286047001.3,N
1691846655.2,286047004.3,N
1691846675.0,286047001.9,N
1691846675.9,286047001.9,N
1691846695.8,286047003.9,N
1691846715.6,286047004.3,N
1691846735.4,286047002.0,N
1691846755.3,286047003.7,N
1691846775.1,286047003.9,N
1691846795.8,286047004.1,Y
1691846815.7,286046999.8,P
1691846835.5,286047002.6,N
1691846855.4,286047001.3,N
1691846875.2,286047002.6,N
1691846895.0,286047002.7,N
1691846895.9,286047002.7,N
1691846915.8,286047002.5,N
1691846935.6,286047002.6,N
1691846955.4,286047002.8,Y
1691846975.3,286046999.9,P
1691846995.1,286046998.4,N
1691846996.0,286046998.4,N
1691847015.8,286046998.7,N
1691847035.7,286047000.2,N
1691847055.5,286047002.5,N
1691847075.3,286047000.3,N
1691847095.2,286047001.2,N
1691847115.9,286047000.3,N
1691847135.7,286047000.8,N
1691847155.6,286047000.9,N
1691847175.4,286047000.0,N
1691847195.2,286047000.6,N
1691847215.1,286047000.5,N
1691847216.0,286047000.5,N
1691847235.8,286047002.6,N
1691847255.6,286047001.9,N
1691847275.5,286047000.3,N
1691847295.3,286046999.8,N
1691847315.1,286047000.5,N
1691847335.9,286047001.0,N
1691847355.7,286047002.7,N
1691847375.5,286046999.8,N
1691847395.4,286047002.4,N
1691847415.2,286047002.7,N
1691847435.0,286047001.8,N
1691847435.9,286047001.8,N
1691847455.8,286047002.0,N
1691847475.6,286047002.7,N
1691847495.4,286047004.3,Y
1691847515.3,286047005.6,P
1691847535.1,286047001.8,N
1691847536.0,286047001.8,N
1691847555.8,286047004.7,N
1691847575.7,286047005.9,Y
1691847595.5,286047001.1,P
1691847615.3,286046999.0,N
1691847635.2,286046996.5,N
1691847655.0,286046996.6,N
1691847655.9,286046996.6,N
1691847675.7,286046999.5,N
1691847695.6,286046999.4,N
1691847715.4,286046996.6,N
1691847735.2,286046999.5,N
1691847755.1,286046997.3,N
1691847756.0,286046997.3,N
1691847775.8,286046995.0,N
1691847795.6,286046995.2,N
1691847815.5,286046997.2,N
1691847835.3,286046997.3,N
1691847855.1,286046997.5,N
1691847875.9,286046997.2,N
1691847895.7,286046997.0,N
1691847915.5,286046997.0,N
1691847935.4,286046997.1,N
1691847955.2,286046998.0,N
1691847975.0,286046998.0,N
1691847975.9,286046998.0,N
1691847995.8,286046997.8,N
1691848015.6,286046997.6,N
1691848035.4,286046994.9,Y
1691848055.3,286047001.1,P
1691848075.1,286047001.2,N
1691848095.8,286047000.8,N
1691848115.7,286047001.1,N
1691848135.5,286047000.6,N
1691848155.3,286046998.3,N
1691848175.2,286047000.3,N
1691848195.0,286047001.2,N
1691848195.9,286047001.2,N
1691848215.7,286047000.0,N
1691848235.6,286047001.0,N
1691848255.4,286046999.7,N
1691848275.2,286047002.4,N
1691848295.1,286047001.7,N
1691848296.0,286047001.7,N
1691848315.8,286047002.4,N
1691848335.6,286047002.2,N
1691848355.5,286047002.0,N
1691848375.3,286047004.4,Y
1691848395.1,286047001.4,P
1691848415.9,286047001.5,P
1691848435.7,286047001.7,P
1691848455.6,286047004.3,Y
1691848475.4,286047002.0,P
1691848495.2,286047001.6,P
1691848515.0,286047001.9,P
1691848516.0,286047001.9,Y
1691848535.8,286047000.2,P
1691848555.6,286047002.7,P
1691848575.5,286047002.0,N
1691848595.3,286047004.3,Y
1691848615.1,286047000.0,P
1691848635.9,286047002.7,P
1691848655.7,286046999.7,N
1691848675.5,286047001.8,N
1691848695.4,286047011.3,Y
1691848715.2,286047004.8,P
1691848735.0,286047001.4,N
1691848735.9,286047001.4,N
1691848755.8,286047000.2,N
1691848775.6,286047002.5,N
1691848795.4,286047001.6,N
